Flag for Norway Weather past 2 weeks in Søgne, Norway

Now
42 °F

Quite cool.


Feels Like: 38 °F
Forecast: 33 / 43 °F
Wind: 6 mph from Northwest

Location: Oksoy Fyr

Current Time: Mar 27, 2015 at 2:16:01 PM

Latest Report: Mar 27, 2015 at 1:00 PM


Visibility: N/A

Pressure: 29.84 "Hg

Humidity: 75%

Dew point: 34 °F

Location of SøgneLocation

Historic Weather in Søgne — Graph

°F

Søgne temperature yesterday

Maximum temperature yesterday: 37 °F (at 3:00 PM)
Minimum temperature yesterday: 33 °F (at 4:00 AM)
Average temperature yesterday: 35 °F

Past Weeks' High & Low Weather Summary

 TemperatureHumidityPressure
High47 °F (Mar 19, 5:00 PM)99% (Mar 26, 6:00 AM)30.77 "Hg (Mar 26, 6:00 AM)
Low30 °F (Mar 22, 3:00 AM)42% (Mar 14, 3:00 PM)29.57 "Hg (Mar 26, 11:00 AM)
Average39 °F82%30.28 "Hg
* Reported Mar 12 1:00 PM — Mar 27 1:00 PM, Søgne, Weather by CustomWeather, © 2015

Note: Actual official high and low records may vary slightly from our data, if they occured in-between our weather recording intervals... More about our weather records

Advertising

Søgne weather history for previous 24 hours

 ConditionsComfort  
Time TempWeatherWind HumidityBarometerVisibility
1:00 PM
Fri, Mar 27
42 °FQuite cool.6 mph75%29.84 "HgN/A
12:00 PM40 °FQuite cool.8 mph88%29.84 "HgN/A
11:00 AM40 °FChilly.7 mph89%29.84 "HgN/A
10:00 AM38 °FChilly.6 mph90%29.83 "HgN/A
9:00 AM37 °FChilly.2 mph96%29.83 "HgN/A
8:00 AM35 °FChilly.1 mph97%29.82 "HgN/A
7:00 AM34 °FChilly.2 mph97%29.80 "HgN/A
6:00 AM34 °FChilly.2 mph97%29.79 "HgN/A
5:00 AM34 °FChilly.2 mph97%29.77 "HgN/A
3:00 AM35 °FChilly.5 mph97%29.75 "HgN/A
2:00 AM35 °FChilly.5 mph97%29.74 "HgN/A
1:00 AM35 °FChilly.5 mph97%29.74 "HgN/A
12:00 AM35 °FChilly.3 mph97%29.73 "HgN/A
11:00 PM
Thu, Mar 26
35 °FChilly.3 mph97%29.72 "HgN/A
9:00 PM35 °FChilly.3 mph97%29.70 "HgN/A
8:00 PM35 °FChilly.2 mph97%29.69 "HgN/A
7:00 PM35 °FChilly.2 mph97%29.67 "HgN/A
6:00 PM37 °FChilly.3 mph97%29.64 "HgN/A
5:00 PM37 °FChilly.5 mph97%29.62 "HgN/A
4:00 PM37 °FChilly.5 mph97%29.61 "HgN/A
3:00 PM37 °FChilly.5 mph98%29.60 "HgN/A
2:00 PM36 °FChilly.5 mph98%29.60 "HgN/A
Weather by CustomWeather, © 2015

See weather overviewHow to use our weather pages